{"data":{"norad_id":42844,"epoch":"2026-05-24T23:44:27.468384Z","epoch_age_seconds":86135,"freshness":"FRESH","line1":"1 42844U 17042V   26144.98920681  .00010292  00000+0  42823-3 0  9991","line2":"2 42844  97.3735 319.6504 0005717  99.1596 261.0288 15.23937113484542","mean_motion":15.23937113,"eccentricity":0.0005717,"inclination_deg":97.3735,"raan_deg":319.6504,"arg_perigee_deg":99.1596,"mean_anomaly_deg":261.0288,"bstar":0.00042823,"rev_number":48454,"period_min":94.492088139073,"perigee_km":490.05014516064,"apogee_km":497.90772251939,"semimajor_km":6872.11593384,"source":"CELESTRAK","updated_at":"2026-05-25T13:37:55.717609Z"}}